SCP
0 0 0 0 0 0 0 0 0 0 0 0 0 0 0 0 0 0 0 0 0 0 0 0 0 0 0 0 0 0 0 0 0 0 0 0 0 0 0 0 0 0 0 0
0 0 0 0 0 0 0 0 0 0 0 0 0 0 0 0 0 0 0 0 0 0 0 0 0 0 0 0 0 0 0 0 0 0 0 0 0 0 0 0 0 0 0 0
0 0 0 0 0 0 0 0 0 0 0 0 0 0 0 0 0 0 0 0 0 0 0 0 0 0 0 0 0 0 0 0 0 0 0 0 0 0 0 0 0 0 0 0
0 0 0 0 0 0 0 0 0 0 0 0 0 0 0 0 0 0 0 0 0 0 0 0 0 0 0 0 0 0 0 0 0 1 0 0 0 0 0 0 0 0 0 0
0 0 0 0 0 0 0 0 0 0 0 0 0 0 0 0 0 0 0 0 0 0 0 0 0 0 0 0 0 0 0 0 0 0 1 0 0 0 0 0 0 0 0 0
0 0 0 0 0 0 0 0 0 0 0 0 0 0 0 0 0 0 0 0 0 0 0 0 0 0 0 0 0 0 0 0 0 0 0 0 0 0 0 0 0 0 0 0
0 0 0 0 0 0 0 0 0 0 0 0 0 0 0 0 0 0 0 0 0 0 0 0 0 0 0 0 0 0 0 0 0 0 0 0 0 0 0 0 0 0 0 0
0 0 0 0 0 0 0 0 0 0 0 0 0 0 0 0 0 0 0 0 0 0 0 0 0 0 0 0 0 0 0 0 0 0 0 0 0 0 0 0 0 0 0 0
0 0 0 0 0 0 0 0 0 0 0 0 0 0 0 0 0 0 0 0 0 0 0 0 0 0 0 0 0 0 0 0 0 0 0 0 0 0 0 0 0 0 0 0
0 0 0 0 0 0 0 0 0 0 0 0 0 0 0 0 0 0 0 0 0 0 0 0 0 0 0 0 0 0 0 0 0 0 0 0 0 0 0 0 0 0 0 0
0 0 0 0 0 0 0 0 0 0 0 0 0 0 0 0 0 0 0 0 0 0 0 0 0 0 0 0 0 0 0 0 0 0 0 0 0 0 0 0 0 0 0 0
0 0 0 0 0 0 0 0 0 0 0 0 0 0 0 0 0 0 0 0 0 0 0 0 0 0 0 0 0 0 0 0 0 0 0 0 0 0 0 0 0 0 0 0
0 0 0 0 0 0 0 0 0 0 0 0 0 0 0 0 0 0 0 0 0 0 0 0 0 0 0 0 0 0 0 0 0 0 0 0 0 0 0 0 0 0 0 0
0 0 0 0 0 0 0 0 0 0 0 0 0 0 0 0 0 0 0 0 0 0 0 0 0 0 0 0 0 0 0 0 0 0 0 0 0 0 0 0 0 0 0 0
0 0 0 0 0 0 0 0 0 0 0 0 0 0 0 0 0 0 0 0 0 0 0 0 0 0 0 0 0 0 0 0 0 0 0 0 0 0 0 0 0 0 0 0
0 0 0 0 0 0 0 0 0 0 0 0 0 0 0 0 0 0 0 0 0 0 0 0 0 0 0 0 0 0 0 0 0 0 0 0 0 0 0 0 0 0 0 0
0 0 0 0 0 0 0 0 0 0 0 0 0 0 0 0 0 0 0 0 0 0 0 0 0 0 0 0 0 0 0 0 0 0 0 0 0 0 0 0 0 0 0 0
0 0 0 0 0 0 0 0 0 0 0 0 0 0 0 0 0 0 0 0 0 0 0 0 0 0 0 0 0 0 0 0 0 0 0 0 0 0 0 0 0 0 0 0
0 0 0 0 0 0 0 0 0 0 0 0 0 0 0 0 0 0 0 0 0 0 0 0 0 0 0 0 0 0 0 0 0 0 0 0 0 0 0 0 0 0 0 0
0 0 0 0 0 0 0 0 0 0 0 0 0 0 0 0 0 0 0 0 0 0 0 0 0 0 0 0 0 0 0 0 0 0 0 0 0 0 0 0 0 0 0 0
0 0 0 0 0 0 0 0 0 0 0 0 0 0 0 0 0 0 0 0 0 0 0 0 0 0 0 0 0 0 0 0 0 0 0 0 0 0 0 0 0 0 0 0
0 0 0 0 0 0 0 0 0 0 0 0 0 0 0 0 0 0 0 0 0 0 0 0 0 0 0 0 0 0 0 0 0 0 0 0 0 0 0 0 0 0 0 0
0 0 0 0 0 0 0 0 0 0 0 0 0 0 0 0 0 0 0 0 0 0 0 0 0 0 0 0 0 0 0 0 0 0 0 0 0 0 0 0 0 0 0 0
0 0 0 0 0 0 0 0 0 0 0 0 0 0 0 0 0 0 0 0 0 0 0 0 0 0 0 0 0 0 0 0 0 0 0 0 0 0 0 0 0 0 0 0
0 0 0 0 0 0 0 0 0 0 0 0 0 0 0 0 0 0 0 0 0 0 0 0 0 0 0 0 0 0 0 0 0 0 0 0 0 0 0 0 0 0 0 0
0 0 0 0 0 0 0 0 0 0 0 0 0 0 0 0 0 0 0 0 0 0 0 0 0 0 0 0 0 0 0 0 0 0 0 0 0 0 0 0 0 0 0 0
Wind_Speed_500mb
23 19 28 32 30 22 17 23 22 13 4 14 23 25 28 31 32 32 33 33 35 34 28 32 38 42 47 48 49 52 54 55 55 62 65 68 69 64 61 57 52 51 51 47
13 28 29 27 30 13 12 20 17 9 7 5 12 23 28 33 38 40 42 44 44 41 34 30 33 38 44 51 57 57 58 57 64 69 70 70 69 70 66 64 63 62 59 57
28 14 32 18 19 23 22 22 14 11 10 8 12 30 30 28 40 47 49 47 47 43 39 34 37 42 45 50 54 56 58 65 64 70 68 69 68 70 73 74 71 70 68 69
25 13 21 25 31 27 28 21 18 9 6 13 3 14 9 16 24 23 39 47 46 43 46 44 43 46 48 53 58 61 61 64 66 66 71 76 79 73 80 77 73 69 68 70
14 23 29 34 36 32 14 11 18 12 14 14 18 13 18 6 17 28 35 37 31 31 27 24 34 43 48 55 60 61 62 67 73 75 78 71 79 79 70 70 67 66 62 67
3 8 16 17 7 26 27 21 13 8 10 14 26 19 18 23 21 20 8 19 20 18 20 23 23 27 33 40 44 45 51 57 57 68 73 73 71 73 66 66 68 61 59 56
10 13 8 15 21 14 24 26 9 9 11 13 6 13 31 7 12 6 9 18 18 17 16 14 13 12 13 17 23 27 30 38 47 52 60 65 62 55 64 62 64 63 57 51
29 21 27 20 24 21 40 38 16 15 13 10 6 18 12 13 7 5 15 13 11 16 18 18 14 11 9 9 11 15 19 25 30 35 42 46 49 55 52 56 59 55 52 47
31 26 32 32 10 28 29 27 24 6 5 1 14 19 24 21 19 25 26 19 16 16 20 20 18 13 11 10 9 10 14 19 23 27 31 38 41 50 54 53 48 47 48 46
13 16 18 13 6 22 21 22 10 11 12 13 21 27 24 9 26 22 24 28 23 23 24 23 21 19 16 12 12 12 14 16 18 22 29 36 38 43 43 44 43 42 39 37
17 19 9 14 30 40 14 24 20 16 20 16 15 19 13 21 24 26 23 20 20 19 21 22 22 18 14 14 15 14 15 15 15 15 16 18 21 25 29 31 33 35 34 30
43 14 12 25 7 15 34 41 45 17 21 17 15 24 11 5 2 11 20 20 20 25 26 25 22 19 20 19 19 20 17 15 13 13 14 15 18 22 24 25 28 26 24 20
29 11 7 4 9 16 18 32 34 36 1 19 18 26 8 3 7 4 20 22 23 25 26 27 26 25 21 22 20 19 18 16 14 13 13 15 17 18 18 16 14 13 12 14
40 7 32 35 29 15 18 32 35 31 20 34 24 42 28 11 13 16 18 21 22 25 26 25 24 23 23 20 18 16 15 15 16 17 19 21 21 21 18 15 14 12 15 20
23 20 23 41 17 7 21 31 41 37 43 39 50 46 51 27 22 25 24 23 29 32 33 30 29 29 27 25 21 20 21 22 23 23 23 22 20 18 15 12 12 15 20 25
16 6 24 13 28 23 7 31 44 51 53 49 53 46 34 25 32 36 31 35 40 40 41 38 37 35 32 29 28 27 27 27 27 24 22 19 15 12 10 10 10 15 18 19
20 13 8 24 14 11 12 56 36 40 50 47 48 72 24 25 12 27 40 49 48 47 46 47 44 38 33 31 30 32 30 28 26 23 21 17 15 13 11 9 9 9 11 13
15 14 5 6 9 18 30 23 46 43 43 47 52 39 13 20 34 52 55 49 52 55 58 53 45 40 38 39 39 34 33 31 28 26 24 21 18 14 10 6 7 11 15 18
22 16 9 14 21 21 32 11 18 30 59 51 47 35 40 33 25 32 47 53 56 55 60 48 43 42 42 40 37 36 35 33 29 25 20 16 12 8 7 8 9 12 16 20
10 15 20 13 17 23 9 27 26 13 39 18 44 43 40 20 19 26 46 49 53 51 48 53 49 43 41 39 37 36 33 29 25 20 15 12 9 7 6 9 12 16 21 27
12 15 32 17 13 12 5 16 35 21 8 3 21 27 24 19 34 15 22 36 41 45 47 49 46 46 44 42 41 37 32 27 22 17 13 10 8 10 13 16 19 23 30 35
20 15 12 9 13 26 22 14 21 5 5 5 4 9 20 25 16 29 25 31 38 46 53 53 51 48 47 45 42 36 30 25 19 14 10 11 13 15 18 21 25 30 36 40
10 5 11 13 7 4 45 5 22 11 8 4 3 6 18 28 24 29 30 34 41 47 51 51 51 51 48 44 40 34 29 22 16 13 14 16 19 21 25 29 34 38 41 44
6 4 3 3 7 6 29 21 22 14 10 8 5 5 15 21 27 33 37 42 47 49 52 52 50 49 47 43 37 30 22 17 15 16 19 21 24 28 31 32 34 37 41 44
2 16 9 7 1 2 16 43 31 26 17 9 7 8 14 22 28 33 41 44 49 52 53 52 50 47 43 37 30 23 15 17 19 22 23 24 27 28 31 34 35 35 37 41
12 9 13 8 18 5 6 27 31 33 27 14 11 15 20 26 29 37 43 50 55 58 56 54 47 39 32 27 22 17 20 27 28 26 25 25 26 25 25 27 28 31 34 38
Wind_Direction_500mb
186 199 207 204 218 249 242 214 206 201 130 220 229 245 253 247 227 250 247 244 246 244 244 229 228 227 223 222 220 218 221 224 224 233 231 232 237 236 236 238 241 241 242 240
169 217 207 222 222 213 194 214 215 123 150 244 251 258 259 256 248 242 247 246 241 243 239 228 222 229 230 231 232 230 227 226 233 238 240 241 242 244 243 243 241 242 243 244
199 188 216 190 192 206 223 228 209 274 161 225 282 268 241 243 245 240 239 247 250 243 237 229 235 233 234 235 238 240 240 235 230 244 240 238 244 248 246 246 244 240 242 246
225 136 179 194 209 205 220 224 246 182 232 259 256 279 206 214 232 226 238 241 245 244 238 233 228 234 234 237 241 240 240 237 235 232 242 236 236 235 243 248 249 248 246 248
179 169 177 197 202 199 221 163 211 216 242 300 222 270 256 113 254 248 235 235 230 231 227 228 236 240 243 244 244 244 243 243 239 234 239 238 235 238 242 247 249 252 249 250
232 354 206 207 105 195 132 125 132 179 232 252 243 227 254 236 226 245 204 186 190 205 219 228 241 249 246 241 241 241 240 239 240 235 233 238 239 234 232 237 245 250 251 251
165 187 160 158 124 154 178 170 183 218 207 245 17 215 253 259 219 230 215 179 174 192 197 205 211 218 230 232 234 236 238 238 241 238 237 236 231 233 233 233 241 245 250 255
199 199 186 184 205 174 194 189 190 199 208 212 134 232 245 236 262 189 204 211 211 186 193 190 202 203 206 213 220 222 226 230 233 236 234 228 232 227 234 235 240 249 255 257
198 222 159 179 179 162 199 221 237 100 52 232 210 248 274 226 231 223 218 215 226 216 206 200 201 210 219 221 236 243 246 242 236 229 222 216 223 227 232 238 242 245 248 250
179 194 194 168 160 233 209 174 177 217 192 231 242 238 249 182 223 215 218 220 226 221 214 213 212 212 217 227 241 250 253 256 253 245 238 232 227 224 227 232 238 242 245 249
223 221 145 158 210 189 180 195 219 223 226 221 248 246 288 247 213 223 209 192 196 210 214 215 217 219 225 234 235 239 243 243 242 241 234 228 225 223 220 224 229 234 234 235
209 214 175 201 134 273 232 215 205 204 213 237 265 255 111 85 149 224 186 180 181 192 200 210 215 219 224 227 231 236 240 243 240 232 226 212 198 198 202 203 211 218 222 229
180 180 143 227 254 213 227 230 232 230 230 200 209 244 111 115 203 191 188 181 191 201 203 209 209 208 212 215 216 223 226 224 223 213 202 196 190 186 188 184 186 195 216 241
173 139 209 216 227 169 203 225 222 236 228 238 227 249 222 196 217 198 193 188 187 194 198 202 201 201 205 201 202 204 201 200 191 180 173 169 166 164 169 180 198 220 248 262
188 209 213 240 258 301 197 201 212 211 224 222 238 236 249 237 206 210 209 198 198 204 207 205 208 206 204 199 194 192 186 182 177 174 177 177 178 182 192 216 246 263 272 277
205 239 217 248 238 230 260 223 208 213 221 226 239 247 248 264 233 212 209 209 209 213 213 211 212 211 204 198 195 190 188 187 185 189 194 191 190 197 218 244 264 273 275 277
166 141 137 239 160 98 290 229 220 224 224 222 230 242 236 239 195 215 211 211 216 218 219 216 216 211 206 203 195 193 194 195 192 195 198 193 191 194 200 218 236 257 270 277
150 147 131 154 94 217 249 222 223 223 232 228 245 251 233 250 220 225 231 223 230 234 231 222 212 206 201 200 198 196 195 193 189 188 187 187 186 193 201 225 267 284 287 294
200 164 179 200 210 286 273 194 193 205 242 232 243 243 242 239 257 242 229 237 239 235 230 221 209 204 199 197 196 194 189 186 182 184 185 188 195 215 250 282 295 302 308 313
188 201 190 168 218 224 328 177 194 157 259 211 227 236 238 186 235 251 235 231 227 227 227 210 203 198 194 190 188 185 182 179 180 186 192 200 210 232 257 278 291 300 306 311
171 185 199 198 223 271 119 142 141 171 252 230 202 221 207 196 228 252 236 215 219 222 209 200 195 192 188 185 183 181 182 183 188 194 201 216 242 264 281 290 299 305 310 314
178 164 183 181 209 242 146 129 179 187 86 102 148 208 200 203 206 216 205 196 197 196 190 194 191 187 184 183 184 184 184 187 192 201 221 245 258 270 280 290 299 306 310 311
171 204 166 206 185 63 175 114 188 159 144 122 114 180 182 183 182 186 189 189 185 187 187 185 187 182 181 182 182 183 184 190 205 228 244 258 271 282 290 297 302 306 307 308
190 195 213 202 152 144 201 213 200 205 166 158 162 193 190 188 186 187 187 187 188 188 188 186 185 184 182 180 181 184 192 209 226 249 263 273 282 291 296 300 305 309 310 311
49 150 155 268 192 179 225 222 225 218 204 223 241 247 221 209 201 199 196 194 192 192 189 187 186 184 179 178 181 189 213 244 255 264 268 275 282 290 297 302 307 312 314 316
192 184 190 229 174 158 98 214 227 230 238 253 269 276 248 218 215 208 206 204 199 194 191 187 184 182 183 190 196 223 253 257 258 261 268 278 285 292 298 304 311 316 317 319
Wind_Speed_850mb
23 19 28 32 30 22 17 23 22 13 4 14 23 25 28 31 32 32 33 33 35 34 28 32 38 42 47 48 49 52 54 55 55 62 65 68 69 64 61 57 52 51 51 47
13 28 29 27 30 13 12 20 17 9 7 5 12 23 28 33 38 40 42 44 44 41 34 30 33 38 44 51 57 57 58 57 64 69 70 70 69 70 66 64 63 62 59 57
28 14 32 18 19 23 22 22 14 11 10 8 12 30 30 28 40 47 49 47 47 43 39 34 37 42 45 50 54 56 58 65 64 70 68 69 68 70 73 74 71 70 68 69
25 13 21 25 31 27 28 21 18 9 6 13 3 14 9 16 24 23 39 47 46 43 46 44 43 46 48 53 58 61 61 64 66 66 71 76 79 73 80 77 73 69 68 70
14 23 29 34 36 32 14 11 18 12 14 14 18 13 18 6 17 28 35 37 31 31 27 24 34 43 48 55 60 61 62 67 73 75 78 71 79 79 70 70 67 66 62 67
3 8 16 17 7 26 27 21 13 8 10 14 26 19 18 23 21 20 8 19 20 18 20 23 23 27 33 40 44 45 51 57 57 68 73 73 71 73 66 66 68 61 59 56
10 13 8 15 21 14 24 26 9 9 11 13 6 13 31 7 12 6 9 18 18 17 16 14 13 12 13 17 23 27 30 38 47 52 60 65 62 55 64 62 64 63 57 51
29 21 27 20 24 21 40 38 16 15 13 10 6 18 12 13 7 5 15 13 11 16 18 18 14 11 9 9 11 15 19 25 30 35 42 46 49 55 52 56 59 55 52 47
31 26 32 32 10 28 29 27 24 6 5 1 14 19 24 21 19 25 26 19 16 16 20 20 18 13 11 10 9 10 14 19 23 27 31 38 41 50 54 53 48 47 48 46
13 16 18 13 6 22 21 22 10 11 12 13 21 27 24 9 26 22 24 28 23 23 24 23 21 19 16 12 12 12 14 16 18 22 29 36 38 43 43 44 43 42 39 37
17 19 9 14 30 40 14 24 20 16 20 16 15 19 13 21 24 26 23 20 20 19 21 22 22 18 14 14 15 14 15 15 15 15 16 18 21 25 29 31 33 35 34 30
43 14 12 25 7 15 34 41 45 17 21 17 15 24 11 5 2 11 20 20 20 25 26 25 22 19 20 19 19 20 17 15 13 13 14 15 18 22 24 25 28 26 24 20
29 11 7 4 9 16 18 32 34 36 1 19 18 26 8 3 7 4 20 22 23 25 26 27 26 25 21 22 20 19 18 16 14 13 13 15 17 18 18 16 14 13 12 14
40 7 32 35 29 15 18 32 35 31 20 34 24 42 28 11 13 16 18 21 22 25 26 25 24 23 23 20 18 16 15 15 16 17 19 21 21 21 18 15 14 12 15 20
23 20 23 41 17 7 21 31 41 37 43 39 50 46 51 27 22 25 24 23 29 32 33 30 29 29 27 25 21 20 21 22 23 23 23 22 20 18 15 12 12 15 20 25
16 6 24 13 28 23 7 31 44 51 53 49 53 46 34 25 32 36 31 35 40 40 41 38 37 35 32 29 28 27 27 27 27 24 22 19 15 12 10 10 10 15 18 19
20 13 8 24 14 11 12 56 36 40 50 47 48 72 24 25 12 27 40 49 48 47 46 47 44 38 33 31 30 32 30 28 26 23 21 17 15 13 11 9 9 9 11 13
15 14 5 6 9 18 30 23 46 43 43 47 52 39 13 20 34 52 55 49 52 55 58 53 45 40 38 39 39 34 33 31 28 26 24 21 18 14 10 6 7 11 15 18
22 16 9 14 21 21 32 11 18 30 59 51 47 35 40 33 25 32 47 53 56 55 60 48 43 42 42 40 37 36 35 33 29 25 20 16 12 8 7 8 9 12 16 20
10 15 20 13 17 23 9 27 26 13 39 18 44 43 40 20 19 26 46 49 53 51 48 53 49 43 41 39 37 36 33 29 25 20 15 12 9 7 6 9 12 16 21 27
12 15 32 17 13 12 5 16 35 21 8 3 21 27 24 19 34 15 22 36 41 45 47 49 46 46 44 42 41 37 32 27 22 17 13 10 8 10 13 16 19 23 30 35
20 15 12 9 13 26 22 14 21 5 5 5 4 9 20 25 16 29 25 31 38 46 53 53 51 48 47 45 42 36 30 25 19 14 10 11 13 15 18 21 25 30 36 40
10 5 11 13 7 4 45 5 22 11 8 4 3 6 18 28 24 29 30 34 41 47 51 51 51 51 48 44 40 34 29 22 16 13 14 16 19 21 25 29 34 38 41 44
6 4 3 3 7 6 29 21 22 14 10 8 5 5 15 21 27 33 37 42 47 49 52 52 50 49 47 43 37 30 22 17 15 16 19 21 24 28 31 32 34 37 41 44
2 16 9 7 1 2 16 43 31 26 17 9 7 8 14 22 28 33 41 44 49 52 53 52 50 47 43 37 30 23 15 17 19 22 23 24 27 28 31 34 35 35 37 41
12 9 13 8 18 5 6 27 31 33 27 14 11 15 20 26 29 37 43 50 55 58 56 54 47 39 32 27 22 17 20 27 28 26 25 25 26 25 25 27 28 31 34 38
Wind_Direction_850mb
186 199 207 204 218 249 242 214 206 201 130 220 229 245 253 247 227 250 247 244 246 244 244 229 228 227 223 222 220 218 221 224 224 233 231 232 237 236 236 238 241 241 242 240
169 217 207 222 222 213 194 214 215 123 150 244 251 258 259 256 248 242 247 246 241 243 239 228 222 229 230 231 232 230 227 226 233 238 240 241 242 244 243 243 241 242 243 244
199 188 216 190 192 206 223 228 209 274 161 225 282 268 241 243 245 240 239 247 250 243 237 229 235 233 234 235 238 240 240 235 230 244 240 238 244 248 246 246 244 240 242 246
225 136 179 194 209 205 220 224 246 182 232 259 256 279 206 214 232 226 238 241 245 244 238 233 228 234 234 237 241 240 240 237 235 232 242 236 236 235 243 248 249 248 246 248
179 169 177 197 202 199 221 163 211 216 242 300 222 270 256 113 254 248 235 235 230 231 227 228 236 240 243 244 244 244 243 243 239 234 239 238 235 238 242 247 249 252 249 250
232 354 206 207 105 195 132 125 132 179 232 252 243 227 254 236 226 245 204 186 190 205 219 228 241 249 246 241 241 241 240 239 240 235 233 238 239 234 232 237 245 250 251 251
165 187 160 158 124 154 178 170 183 218 207 245 17 215 253 259 219 230 215 179 174 192 197 205 211 218 230 232 234 236 238 238 241 238 237 236 231 233 233 233 241 245 250 255
199 199 186 184 205 174 194 189 190 199 208 212 134 232 245 236 262 189 204 211 211 186 193 190 202 203 206 213 220 222 226 230 233 236 234 228 232 227 234 235 240 249 255 257
198 222 159 179 179 162 199 221 237 100 52 232 210 248 274 226 231 223 218 215 226 216 206 200 201 210 219 221 236 243 246 242 236 229 222 216 223 227 232 238 242 245 248 250
179 194 194 168 160 233 209 174 177 217 192 231 242 238 249 182 223 215 218 220 226 221 214 213 212 212 217 227 241 250 253 256 253 245 238 232 227 224 227 232 238 242 245 249
223 221 145 158 210 189 180 195 219 223 226 221 248 246 288 247 213 223 209 192 196 210 214 215 217 219 225 234 235 239 243 243 242 241 234 228 225 223 220 224 229 234 234 235
209 214 175 201 134 273 232 215 205 204 213 237 265 255 111 85 149 224 186 180 181 192 200 210 215 219 224 227 231 236 240 243 240 232 226 212 198 198 202 203 211 218 222 229
180 180 143 227 254 213 227 230 232 230 230 200 209 244 111 115 203 191 188 181 191 201 203 209 209 208 212 215 216 223 226 224 223 213 202 196 190 186 188 184 186 195 216 241
173 139 209 216 227 169 203 225 222 236 228 238 227 249 222 196 217 198 193 188 187 194 198 202 201 201 205 201 202 204 201 200 191 180 173 169 166 164 169 180 198 220 248 262
188 209 213 240 258 301 197 201 212 211 224 222 238 236 249 237 206 210 209 198 198 204 207 205 208 206 204 199 194 192 186 182 177 174 177 177 178 182 192 216 246 263 272 277
205 239 217 248 238 230 260 223 208 213 221 226 239 247 248 264 233 212 209 209 209 213 213 211 212 211 204 198 195 190 188 187 185 189 194 191 190 197 218 244 264 273 275 277
166 141 137 239 160 98 290 229 220 224 224 222 230 242 236 239 195 215 211 211 216 218 219 216 216 211 206 203 195 193 194 195 192 195 198 193 191 194 200 218 236 257 270 277
150 147 131 154 94 217 249 222 223 223 232 228 245 251 233 250 220 225 231 223 230 234 231 222 212 206 201 200 198 196 195 193 189 188 187 187 186 193 201 225 267 284 287 294
200 164 179 200 210 286 273 194 193 205 242 232 243 243 242 239 257 242 229 237 239 235 230 221 209 204 199 197 196 194 189 186 182 184 185 188 195 215 250 282 295 302 308 313
188 201 190 168 218 224 328 177 194 157 259 211 227 236 238 186 235 251 235 231 227 227 227 210 203 198 194 190 188 185 182 179 180 186 192 200 210 232 257 278 291 300 306 311
171 185 199 198 223 271 119 142 141 171 252 230 202 221 207 196 228 252 236 215 219 222 209 200 195 192 188 185 183 181 182 183 188 194 201 216 242 264 281 290 299 305 310 314
178 164 183 181 209 242 146 129 179 187 86 102 148 208 200 203 206 216 205 196 197 196 190 194 191 187 184 183 184 184 184 187 192 201 221 245 258 270 280 290 299 306 310 311
171 204 166 206 185 63 175 114 188 159 144 122 114 180 182 183 182 186 189 189 185 187 187 185 187 182 181 182 182 183 184 190 205 228 244 258 271 282 290 297 302 306 307 308
190 195 213 202 152 144 201 213 200 205 166 158 162 193 190 188 186 187 187 187 188 188 188 186 185 184 182 180 181 184 192 209 226 249 263 273 282 291 296 300 305 309 310 311
49 150 155 268 192 179 225 222 225 218 204 223 241 247 221 209 201 199 196 194 192 192 189 187 186 184 179 178 181 189 213 244 255 264 268 275 282 290 297 302 307 312 314 316
192 184 190 229 174 158 98 214 227 230 238 253 269 276 248 218 215 208 206 204 199 194 191 187 184 182 183 190 196 223 253 257 258 261 268 278 285 292 298 304 311 316 317 319